Terminal Aerodrome Forecast
Issued by NWS Grand Junction, CO

Home | Current Version | Previous Version | Text Only | Print | Product List | Glossary On
Versions: 1 2 3 4 5 6 7 8 9 10 11 12
000
FTUS45 KGJT 311729
TAFGJT
TAF
KGJT 311729Z 3118/0118 15007KT P6SM SCT070
     FM312000 29007KT P6SM SCT070 SCT250
     FM010200 04008KT P6SM FEW250
     FM010800 11007KT P6SM FEW250=

USA.gov is the U.S. government's official web portal to all federal, state and local government web resources and services.